www.pogodaiklimat.ru

Погода и климат >> Архив погоды >> Россия >> Приморский край >> Малая Кема


ПОГОДА в Малой Кеме

  • Прогноз погоды в Малой Кеме
  • Монитор погоды в Малой Кеме

АРХИВ ПОГОДЫ в Малой Кеме

Время (UTC), дата Ветер
(напр.,м/с)
 
Видим.   Явления Облачность Т
(С)
Тd
(С)
f
(%)
Тe
(С)
Тes
(С)
Комфортность P
(гПа)
Po
(гПа)
Тmin
(С)
Tmax
(С)
R
(мм)
R24
(мм)
S
(см)
09 11.02 З 2
{12}
н/о н/о -9.5 -27.2 22 -14 -14 1024.8 1022.7 -5.2
12 11.02 СЗ 1 н/о н/о -11.2 -27.3 25 -13 1026.1 1024.0
15 11.02 штиль 0 н/о н/о -13.2 -27.1 30 -13 1026.2 1024.0
18 11.02 СЗ 1 н/о н/о -18.7 -27.0 48 -22 1026.2 1024.0
21 11.02 СЗ 1 н/о н/о -19.8 -26.5 55 -23 1026.2 1024.0 -20.2
00 12.02 СЗ 1 н/о н/о -13.1 -22.8 44 -15 1026.2 1024.0 -20.8
03 12.02 З 4 н/о н/о -8.0 -23.7 27 -14 1023.4 1021.3
06 12.02 З 5 н/о н/о -8.0 -27.0 20 -15 1022.1 1020.0
09 12.02 СЗ 3
{11}
н/о н/о -10.7 -28.7 21 -16 -16 1024.8 1022.7 -7.4
12 12.02 З 3 н/о н/о -13.4 -28.4 27 -20 1027.5 1025.3
15 12.02 С 1 н/о н/о -13.9 -27.7 30 -16 1027.5 1025.3
18 12.02 З 4 н/о н/о -13.6 -26.7 32 -21 1026.2 1024.0
21 12.02 С 1 н/о н/о -13.8 -25.6 36 -16 1026.2 1024.0 -15.7
00 13.02 СЗ 4 н/о н/о -11.1 -24.9 31 -18 1026.1 1024.0 -17.1
03 13.02 З 3 н/о н/о -7.6 -25.6 22 -13 1023.4 1021.3
06 13.02 З 3 н/о н/о -4.8 -26.1 17 -9 1022.1 1020.0
09 13.02 СЗ 4 н/о н/о -8.4 -26.3 22 -15 1023.4 1021.3 -4.6
12 13.02 З 1 н/о н/о -11.1 -25.2 30 -13 1026.1 1024.0
15 13.02 СЗ 1 н/о н/о -14.6 -24.6 42 -17 1026.2 1024.0
18 13.02 СЗ 1 н/о н/о -16.1 -24.3 49 -19 1026.2 1024.0
21 13.02 С 1 н/о н/о -16.0 -23.8 51 -19 1024.9 1022.7 -17.3
00 14.02 З 3 н/о н/о -9.0 -23.4 30 -14 1026.1 1024.0 -17.6
03 14.02 З 5 н/о н/о -4.2 -25.6 17 -10 1023.4 1021.3
06 14.02 З 4 н/о н/о -1.9 -26.6 13 -6 1022.1 1020.0
09 14.02 СЗ 4
{11}
н/о н/о -4.8 -26.1 17 -10 -10 1023.4 1021.3 -1.6
12 14.02 З 1 н/о н/о -7.3 -24.4 24 -9 1024.8 1022.7
15 14.02 С 1 н/о н/о -12.0 -24.6 34 -14 1023.4 1021.3
18 14.02 СЗ 2 н/о н/о -10.7 -23.8 33 -15 1023.4 1021.3
21 14.02 З 3 н/о н/о -11.6 -24.0 35 -18 1022.1 1020.0 -14.7
00 15.02 штиль 0 н/о н/о -9.0 -21.3 36 -9 1020.8 1018.7 -14.8
03 15.02 ЮЗ 5 н/о н/о -3.0 -25.3 16 -8 1018.1 1016.0
06 15.02 ЮЗ 4 н/о н/о -0.6 -25.6 13 -5 1014.0 1012.0
09 15.02 З 3 н/о н/о -2.7 -26.5 14 -7 1012.7 1010.7 -0.4
12 15.02 СЗ 1 н/о н/о -4.1 -26.9 15 -5 1012.8 1010.7
15 15.02 СЗ 1 н/о н/о -5.9 -24.7 21 -7 1012.8 1010.7
18 15.02 СЗ 3 н/о н/о -7.3 -25.3 22 -12 1011.4 1009.3
21 15.02 СЗ 3 н/о н/о -7.4 -25.4 22 -12 1010.1 1008.0 -10.5
00 16.02 З 4 н/о н/о -4.5 -23.5 21 -10 1010.1 1008.0
03 16.02 В 2 н/о н/о -1.5 -16.0 32 -4 1008.7 1006.7
06 16.02 СЗ 3 н/о н/о +1.6 -22.2 15 -1 1006.0 1004.0
09 16.02 СЗ 4
{12}
н/о н/о -3.0 -19.8 26 -8 -8 1006.0 1004.0 +1.8
12 16.02 СЗ 2 н/о н/о -4.1 -19.5 29 -7 1007.3 1005.3
15 16.02 СЗ 3 н/о н/о -3.2 -19.1 28 -7 1006.0 1004.0
18 16.02 СЗ 4 н/о н/о -3.0 -19.3 27 -8 1004.7 1002.7
21 16.02 З 4 н/о н/о -4.9 -19.4 31 -10 1006.0 1004.0 -5.2
00 17.02 ЮЗ 4 н/о н/о -3.7 -17.6 33 -9 1007.3 1005.3 -6.4
03 17.02 З 5 н/о н/о +2.5 -17.0 22 -2 1006.0 1004.0
06 17.02 СЗ 4 н/о н/о +5.0 -18.0 17 +2 1003.3 1001.3
09 17.02 З 4
{12}
н/о н/о +0.6 -17.1 25 -4 -4 1006.0 1004.0 +5.4
12 17.02 СЗ 3 н/о н/о -0.6 -16.8 28 -4 1008.7 1006.7
15 17.02 СЗ 4 н/о н/о -1.4 -14.5 36 -6 1010.0 1008.0
18 17.02 СЗ 3 н/о н/о -2.4 -17.2 31 -6 1012.7 1010.7
21 17.02 ЮЗ 2 н/о н/о -4.7 -18.1 34 -8 1016.8 1014.7 -4.9
00 18.02 ЮЗ 4 н/о н/о -1.5 -16.8 30 -6 1018.0 1016.0 -5.9
03 18.02 З 3 н/о н/о +4.2 -16.8 20 +2 1018.0 1016.0
06 18.02 ЮЗ 8 н/о н/о +1.4 -6.4 56 -5 1016.7 1014.7

 

Местоположение метеостанции Малая Кема (Приморский край, Россия): широта 45.40 долгота 137.10 высота над уровнем моря 16 м.

В архиве по умолчанию представлена погода в Малой Кеме за последнюю неделю. Архивные данные за месяц целиком и за предыдущие месяцы, начиная с января 2011 года, Вы можете получить, выбрав интересующий диапазон дат из раскрывающегося списка и нажав кнопку "Ввод!".


*Определитесь, кто Вы:
робот инопланетянин человек

Внимание! Время в таблицах - всемирное. Для получения местного времени необходимо прибавить поправку, которая равна 10 ч.

Смотрите также архив погоды в соседних городах и на ближайших метеорологических станциях:

Погода в Тернее (Приморский край, Россия) (59 км)
Погода в Мельничном (Приморский край, Россия) (125 км)
Погода в Рудной Пристани (Приморский край, Россия) (154 км)
Погода в Сосуново (Приморский край, Россия) (158 км)
Погода в Глубинном (Приморский край, Россия) (158 км)
Погода в Богополе (Приморский край, Россия) (185 км)
Погода в Красном Яре (Приморский край, Россия) (188 км)
Погода в Кавалерово (Приморский край, Россия) (209 км)
Погода в Малиново (Приморский край, Россия) (226 км)
Погода в Ольге (Приморский край, Россия) (232 км)

Пояснения к столбцам:

Ветер - указаны скорость ветра в м/с - средняя за 10 мин, порывы в срок и между сроками (в фигурных скобках) и направление, откуда дует ветер: С - северный, СВ - северо-восточный, В - восточный, ЮВ - юго-восточный, Ю - южный, ЮЗ - юго-западный, З - западный, СЗ - северо-западный.
Видимость - горизонтальная дальность видимости в метрах или километрах. При видимости от 1 до 10 км при отсутствии осадков обычно наблюдается дымка, при ухудшении видимости до 1 км и менее - туман. В сухую погоду видимость может ухудшаться дымом, пылью или мглою.
Явления - указаны атмосферные явления, наблюдавшиеся в срок или в последний час перед сроком; фигурными скобками обозначены явления, наблюдавшиеся между сроками (за 1-3 часа до срока); квадратными скобками обозначены град или гололедные отложения с указанием их диаметра в мм.
Облачность - указаны через наклонную черту общая и нижняя облачность в баллах и высота нижней границы облаков в метрах; квадратными скобками обозначены формы облаков: Ci - перистые, Cs - перисто-слоистые, Cc - перисто-кучевые, Ac - высококучевые, As - высокослоистые, Sc - слоисто-кучевые, Ns - слоисто-дождевые, Cu - кучевые, Cb - кучево-дождевые. Подробнее классификацию облаков см. в Атласе облаков (PDF).
T - Температура воздуха - температура, измеренная на высоте 2 м над землей.
Td - Температура точки росы - температура, при понижении до которой содержащийся в воздухе водяной пар достигнет насыщения.
f - Относительная влажность воздуха - влажноcть воздуха, измеренная на высоте 2 м над землей.
Te - Эффективная температура - температура, которую ощущает одетый по сезону человек в тени. Характеристика душности погоды. При расчете учитывается влияние влажности воздуха и скорости ветра на теплоощущения человека.
Tes - Эффективная температура на солнце - температура, которую ощущает человек, с поправкой на солнечный нагрев. Характеристика знойности погоды. Зависит от высоты солнца над горизонтом, облачности и скорости ветра. Ночью, в пасмурную погоду, а также при ветре 12 м/с и более поправка равна нулю.
P - Атмосферное давление - приведенное к уровню моря атмосферное давление.
Po - Атмосферное давление - измеренное на уровне метеостанции атмосферное давление.
Tmin - Минимальная температура - минимум температуры воздуха на высоте 2 м над землей.
Tmax - Максимальная температура - максимум температуры воздуха на высоте 2 м над землей.
R - Количество осадков - Количество выпавших осадков за период времени, мм. При наведении курсора мыши на число - период времени, за который выпало указанное количество осадков.
R24 - Количество осадков - Количество выпавших осадков за 24 часа, мм.
S - Снежный покров - Высота снежного покрова, см. При наведении курсора мыши на число - состояние снежного покрова и степень покрытия местности в баллах.